Tracking 19563 objects as of 20-Mar-2019
HD Live streaming from Space Station
objects crossing your sky now

COSMOS 1794

Track COSMOS 1794 now!
10-day predictions
COSMOS 1794 is classified as:


NORAD ID: 17138
Int'l Code: 1986-092A
Perigee: 1,472.9 km
Apogee: 1,507.1 km
Inclination: 74.0 °
Period: 115.6 minutes
Semi major axis: 7860 km
RCS: 0.694 m2 (medium)
Launch date: November 21, 1986
Source: Commonwealth of Independent States (former USSR) (CIS)
Launch site: PLESETSK MISSILE AND SPACE COMPLEX (PKMTR)
aabbcc
Your satellite tracking list
Your tracking list is empty




NASA's NSSDC Master Catalog

Two Line Element Set (TLE):
1 17138U 86092A   19078.23268459 -.00000023 +00000-0 -50212-4 0  9990
2 17138 074.0178 004.0222 0021764 289.6073 239.4345 12.45623099469789
Source of the keplerian elements: AFSPC